owner,sensor,date,latitude,longitude,vertical_datum,sea_water_temperature,qcFlag
ADCP,ioos:station:wmo:42384:1,2020-08-01T00:07:00Z,27.9920,-90.3255,14.2,29.1,11111222
ADCP,ioos:station:wmo:42384:1,2020-08-01T00:28:00Z,27.9920,-90.3255,14.2,29.1,11111222
ADCP,ioos:station:wmo:42384:1,2020-08-01T00:38:00Z,27.9920,-90.3255,14.3,29.2,11111222
ADCP,ioos:station:wmo:42384:1,2020-08-01T00:48:00Z,27.9920,-90.3255,14.4,29.1,11111222
ADCP,ioos:station:wmo:42384:1,2020-08-01T00:58:00Z,27.9920,-90.3255,14.3,29.1,11111222
ADCP,ioos:station:wmo:42384:1,2020-08-01T01:08:00Z,27.9920,-90.3255,14.3,29.2,11111222
ADCP,ioos:station:wmo:42384:1,2020-08-01T01:18:00Z,27.9920,-90.3255,14.3,29.2,11111222
ADCP,ioos:station:wmo:42384:1,2020-08-01T01:28:00Z,27.9920,-90.3255,14.3,29.2,11111222
ADCP,ioos:station:wmo:42384:1,2020-08-01T01:38:00Z,27.9920,-90.3255,14.3,29.2,11111222
ADCP,ioos:station:wmo:42384:1,2020-08-01T01:48:00Z,27.9920,-90.3255,14.4,29.1,11111222
ADCP,ioos:station:wmo:42384:1,2020-08-01T01:58:00Z,27.9920,-90.3255,14.3,29.1,11111222
ADCP,ioos:station:wmo:42384:1,2020-08-01T02:08:00Z,27.9920,-90.3255,14.3,29.1,11111222
ADCP,ioos:station:wmo:42384:1,2020-08-01T02:18:00Z,27.9920,-90.3255,14.5,29.1,11111222
ADCP,ioos:station:wmo:42384:1,2020-08-01T02:28:00Z,27.9920,-90.3255,14.5,29.1,11111222
ADCP,ioos:station:wmo:42384:1,2020-08-01T02:38:00Z,27.9920,-90.3255,14.4,29.1,11111222
ADCP,ioos:station:wmo:42384:1,2020-08-01T02:48:00Z,27.9920,-90.3255,14.4,29.1,11111222
ADCP,ioos:station:wmo:42384:1,2020-08-01T02:58:00Z,27.9920,-90.3255,14.4,29.1,11111222
ADCP,ioos:station:wmo:42384:1,2020-08-01T03:08:00Z,27.9920,-90.3255,14.3,29.0,11111222
ADCP,ioos:station:wmo:42384:1,2020-08-01T03:18:00Z,27.9920,-90.3255,14.4,29.0,11111222
ADCP,ioos:station:wmo:42384:1,2020-08-01T03:28:00Z,27.9920,-90.3255,14.5,29.0,11111222
ADCP,ioos:station:wmo:42384:1,2020-08-01T03:38:00Z,27.9920,-90.3255,14.4,29.0,11111222
ADCP,ioos:station:wmo:42384:1,2020-08-01T03:48:00Z,27.9920,-90.3255,14.5,29.0,11111222
ADCP,ioos:station:wmo:42384:1,2020-08-01T03:58:00Z,27.9920,-90.3255,14.5,29.0,11111222
ADCP,ioos:station:wmo:42384:1,2020-08-01T04:08:00Z,27.9920,-90.3255,14.7,29.0,11111222
ADCP,ioos:station:wmo:42384:1,2020-08-01T04:18:00Z,27.9920,-90.3255,14.4,29.0,11111222
ADCP,ioos:station:wmo:42384:1,2020-08-01T04:28:00Z,27.9920,-90.3255,14.6,29.0,11111222
ADCP,ioos:station:wmo:42384:1,2020-08-01T04:38:00Z,27.9920,-90.3255,14.4,29.0,11111222
ADCP,ioos:station:wmo:42384:1,2020-08-01T04:48:00Z,27.9920,-90.3255,14.7,29.0,11111222
ADCP,ioos:station:wmo:42384:1,2020-08-01T04:58:00Z,27.9920,-90.3255,14.6,29.0,11111222
ADCP,ioos:station:wmo:42384:1,2020-08-01T05:08:00Z,27.9920,-90.3255,14.6,29.0,11111222
ADCP,ioos:station:wmo:42384:1,2020-08-01T05:18:00Z,27.9920,-90.3255,14.5,29.0,11111222
ADCP,ioos:station:wmo:42384:1,2020-08-01T05:28:00Z,27.9920,-90.3255,14.6,29.0,11111222
ADCP,ioos:station:wmo:42384:1,2020-08-01T05:38:00Z,27.9920,-90.3255,14.6,29.0,11111222
ADCP,ioos:station:wmo:42384:1,2020-08-01T05:48:00Z,27.9920,-90.3255,14.5,29.0,11111222
ADCP,ioos:station:wmo:42384:1,2020-08-01T05:58:00Z,27.9920,-90.3255,14.5,28.9,11111222
ADCP,ioos:station:wmo:42384:1,2020-08-01T06:08:00Z,27.9920,-90.3255,14.5,28.9,11111222
ADCP,ioos:station:wmo:42384:1,2020-08-01T06:18:00Z,27.9920,-90.3255,14.6,28.9,11111222
ADCP,ioos:station:wmo:42384:1,2020-08-01T06:28:00Z,27.9920,-90.3255,14.7,28.9,11111222
ADCP,ioos:station:wmo:42384:1,2020-08-01T06:38:00Z,27.9920,-90.3255,14.6,28.9,11111222
ADCP,ioos:station:wmo:42384:1,2020-08-01T06:49:00Z,27.9920,-90.3255,14.6,28.9,11111222
ADCP,ioos:station:wmo:42384:1,2020-08-01T06:59:00Z,27.9920,-90.3255,14.8,28.9,11111222
ADCP,ioos:station:wmo:42384:1,2020-08-01T07:09:00Z,27.9920,-90.3255,14.9,28.9,11111222
ADCP,ioos:station:wmo:42384:1,2020-08-01T07:19:00Z,27.9920,-90.3255,14.7,28.9,11111222
ADCP,ioos:station:wmo:42384:1,2020-08-01T07:29:00Z,27.9920,-90.3255,14.8,29.0,11111222
ADCP,ioos:station:wmo:42384:1,2020-08-01T07:39:00Z,27.9920,-90.3255,14.8,29.1,11111222
ADCP,ioos:station:wmo:42384:1,2020-08-01T07:49:00Z,27.9920,-90.3255,14.8,29.2,11111222
ADCP,ioos:station:wmo:42384:1,2020-08-01T07:59:00Z,27.9920,-90.3255,14.8,29.2,11111222
ADCP,ioos:station:wmo:42384:1,2020-08-01T08:09:00Z,27.9920,-90.3255,14.9,29.2,11111222
ADCP,ioos:station:wmo:42384:1,2020-08-01T08:19:00Z,27.9920,-90.3255,14.8,29.3,11111222
ADCP,ioos:station:wmo:42384:1,2020-08-01T08:29:00Z,27.9920,-90.3255,14.9,29.3,11111222
ADCP,ioos:station:wmo:42384:1,2020-08-01T08:39:00Z,27.9920,-90.3255,14.8,29.4,11111222
ADCP,ioos:station:wmo:42384:1,2020-08-01T08:49:00Z,27.9920,-90.3255,15.0,29.4,11111222
ADCP,ioos:station:wmo:42384:1,2020-08-01T08:59:00Z,27.9920,-90.3255,14.9,29.4,11111222
ADCP,ioos:station:wmo:42384:1,2020-08-01T09:09:00Z,27.9920,-90.3255,14.8,29.4,11111222
ADCP,ioos:station:wmo:42384:1,2020-08-01T09:19:00Z,27.9920,-90.3255,15.0,29.4,11111222
ADCP,ioos:station:wmo:42384:1,2020-08-01T09:29:00Z,27.9920,-90.3255,14.9,29.4,11111222
ADCP,ioos:station:wmo:42384:1,2020-08-01T09:39:00Z,27.9920,-90.3255,14.8,29.4,11111222
ADCP,ioos:station:wmo:42384:1,2020-08-01T09:49:00Z,27.9920,-90.3255,15.0,29.4,11111222
ADCP,ioos:station:wmo:42384:1,2020-08-01T09:59:00Z,27.9920,-90.3255,14.9,29.4,11111222
ADCP,ioos:station:wmo:42384:1,2020-08-01T10:09:00Z,27.9920,-90.3255,15.0,29.4,11111222
ADCP,ioos:station:wmo:42384:1,2020-08-01T10:19:00Z,27.9920,-90.3255,15.0,29.4,11111222
ADCP,ioos:station:wmo:42384:1,2020-08-01T10:29:00Z,27.9920,-90.3255,14.9,29.4,11111222
ADCP,ioos:station:wmo:42384:1,2020-08-01T10:39:00Z,27.9920,-90.3255,14.9,29.4,11111222
ADCP,ioos:station:wmo:42384:1,2020-08-01T10:49:00Z,27.9920,-90.3255,14.9,29.4,11111222
ADCP,ioos:station:wmo:42384:1,2020-08-01T10:59:00Z,27.9920,-90.3255,14.9,29.4,11111222
ADCP,ioos:station:wmo:42384:1,2020-08-01T11:09:00Z,27.9920,-90.3255,14.9,29.4,11111222
ADCP,ioos:station:wmo:42384:1,2020-08-01T11:19:00Z,27.9920,-90.3255,14.9,29.4,11111222
ADCP,ioos:station:wmo:42384:1,2020-08-01T11:29:00Z,27.9920,-90.3255,14.9,29.4,11111222
ADCP,ioos:station:wmo:42384:1,2020-08-01T11:39:00Z,27.9920,-90.3255,15.1,29.4,11111222
ADCP,ioos:station:wmo:42384:1,2020-08-01T11:49:00Z,27.9920,-90.3255,14.9,29.4,11111222
ADCP,ioos:station:wmo:42384:1,2020-08-01T11:59:00Z,27.9920,-90.3255,15.0,29.4,11111222
ADCP,ioos:station:wmo:42384:1,2020-08-01T12:09:00Z,27.9920,-90.3255,14.9,29.4,11111222
ADCP,ioos:station:wmo:42384:1,2020-08-01T12:19:00Z,27.9920,-90.3255,15.0,29.4,11111222
ADCP,ioos:station:wmo:42384:1,2020-08-01T12:29:00Z,27.9920,-90.3255,15.1,29.4,11111222
ADCP,ioos:station:wmo:42384:1,2020-08-01T12:39:00Z,27.9920,-90.3255,15.0,29.4,11111222
ADCP,ioos:station:wmo:42384:1,2020-08-01T12:49:00Z,27.9920,-90.3255,15.0,29.3,11111222
ADCP,ioos:station:wmo:42384:1,2020-08-01T12:59:00Z,27.9920,-90.3255,14.9,29.3,11111222
ADCP,ioos:station:wmo:42384:1,2020-08-01T13:09:00Z,27.9920,-90.3255,14.8,29.3,11111222
ADCP,ioos:station:wmo:42384:1,2020-08-01T13:19:00Z,27.9920,-90.3255,14.9,29.2,11111222
ADCP,ioos:station:wmo:42384:1,2020-08-01T13:29:00Z,27.9920,-90.3255,14.9,29.2,11111222
ADCP,ioos:station:wmo:42384:1,2020-08-01T13:39:00Z,27.9920,-90.3255,14.9,29.2,11111222
ADCP,ioos:station:wmo:42384:1,2020-08-01T13:49:00Z,27.9920,-90.3255,15.0,29.2,11111222
ADCP,ioos:station:wmo:42384:1,2020-08-01T13:59:00Z,27.9920,-90.3255,14.9,29.2,11111222
ADCP,ioos:station:wmo:42384:1,2020-08-01T14:09:00Z,27.9920,-90.3255,14.9,29.2,11111222
ADCP,ioos:station:wmo:42384:1,2020-08-01T14:19:00Z,27.9920,-90.3255,14.8,29.2,11111222
ADCP,ioos:station:wmo:42384:1,2020-08-01T14:29:00Z,27.9920,-90.3255,14.8,29.2,11111222
ADCP,ioos:station:wmo:42384:1,2020-08-01T14:39:00Z,27.9920,-90.3255,14.9,29.2,11111222
ADCP,ioos:station:wmo:42384:1,2020-08-01T14:49:00Z,27.9920,-90.3255,14.9,29.2,11111222
ADCP,ioos:station:wmo:42384:1,2020-08-01T14:59:00Z,27.9920,-90.3255,14.9,29.2,11111222
ADCP,ioos:station:wmo:42384:1,2020-08-01T15:09:00Z,27.9920,-90.3255,14.8,29.2,11111222
ADCP,ioos:station:wmo:42384:1,2020-08-01T15:19:00Z,27.9920,-90.3255,14.8,29.2,11111222
ADCP,ioos:station:wmo:42384:1,2020-08-01T15:29:00Z,27.9920,-90.3255,14.9,29.2,11111222
ADCP,ioos:station:wmo:42384:1,2020-08-01T15:39:00Z,27.9920,-90.3255,14.9,29.2,11111222
ADCP,ioos:station:wmo:42384:1,2020-08-01T15:49:00Z,27.9920,-90.3255,14.8,29.2,11111222
ADCP,ioos:station:wmo:42384:1,2020-08-01T15:59:00Z,27.9920,-90.3255,14.8,29.2,11111222
ADCP,ioos:station:wmo:42384:1,2020-08-01T16:09:00Z,27.9920,-90.3255,14.7,29.2,11111222
ADCP,ioos:station:wmo:42384:1,2020-08-01T16:19:00Z,27.9920,-90.3255,14.9,29.2,11111222
ADCP,ioos:station:wmo:42384:1,2020-08-01T16:29:00Z,27.9920,-90.3255,14.8,29.2,11111222
ADCP,ioos:station:wmo:42384:1,2020-08-01T16:39:00Z,27.9920,-90.3255,14.7,29.2,11111222
ADCP,ioos:station:wmo:42384:1,2020-08-01T16:49:00Z,27.9920,-90.3255,14.7,29.2,11111222
ADCP,ioos:station:wmo:42384:1,2020-08-01T16:59:00Z,27.9920,-90.3255,14.8,29.2,11111222
ADCP,ioos:station:wmo:42384:1,2020-08-01T17:09:00Z,27.9920,-90.3255,14.8,29.2,11111222
ADCP,ioos:station:wmo:42384:1,2020-08-01T17:19:00Z,27.9920,-90.3255,14.6,29.2,11111222
ADCP,ioos:station:wmo:42384:1,2020-08-01T17:29:00Z,27.9920,-90.3255,14.7,29.2,11111222
ADCP,ioos:station:wmo:42384:1,2020-08-01T17:39:00Z,27.9920,-90.3255,14.8,29.2,11111222
ADCP,ioos:station:wmo:42384:1,2020-08-01T17:49:00Z,27.9920,-90.3255,14.7,29.2,11111222
ADCP,ioos:station:wmo:42384:1,2020-08-01T17:59:00Z,27.9920,-90.3255,14.8,29.2,11111222
ADCP,ioos:station:wmo:42384:1,2020-08-01T18:09:00Z,27.9920,-90.3255,14.7,29.2,11111222
ADCP,ioos:station:wmo:42384:1,2020-08-01T18:19:00Z,27.9920,-90.3255,14.7,29.2,11111222
ADCP,ioos:station:wmo:42384:1,2020-08-01T18:29:00Z,27.9920,-90.3255,14.5,29.2,11111222
ADCP,ioos:station:wmo:42384:1,2020-08-01T18:39:00Z,27.9920,-90.3255,14.5,29.2,11111222
ADCP,ioos:station:wmo:42384:1,2020-08-01T18:49:00Z,27.9920,-90.3255,14.6,29.2,11111222
ADCP,ioos:station:wmo:42384:1,2020-08-01T18:59:00Z,27.9920,-90.3255,14.6,29.2,11111222
ADCP,ioos:station:wmo:42384:1,2020-08-01T19:09:00Z,27.9920,-90.3255,14.5,29.2,11111222
ADCP,ioos:station:wmo:42384:1,2020-08-01T19:19:00Z,27.9920,-90.3255,14.4,29.2,11111222
ADCP,ioos:station:wmo:42384:1,2020-08-01T19:29:00Z,27.9920,-90.3255,14.7,29.2,11111222
ADCP,ioos:station:wmo:42384:1,2020-08-01T19:39:00Z,27.9920,-90.3255,14.6,29.2,11111222
ADCP,ioos:station:wmo:42384:1,2020-08-01T19:49:00Z,27.9920,-90.3255,14.4,29.2,11111222
ADCP,ioos:station:wmo:42384:1,2020-08-01T19:59:00Z,27.9920,-90.3255,14.5,29.2,11111222
ADCP,ioos:station:wmo:42384:1,2020-08-01T20:09:00Z,27.9920,-90.3255,14.4,29.1,11111222
ADCP,ioos:station:wmo:42384:1,2020-08-01T20:19:00Z,27.9920,-90.3255,14.5,29.2,11111222
ADCP,ioos:station:wmo:42384:1,2020-08-01T20:29:00Z,27.9920,-90.3255,14.4,29.2,11111222
ADCP,ioos:station:wmo:42384:1,2020-08-01T20:39:00Z,27.9920,-90.3255,14.5,29.3,11111222
ADCP,ioos:station:wmo:42384:1,2020-08-01T20:49:00Z,27.9920,-90.3255,14.6,29.3,11111222
ADCP,ioos:station:wmo:42384:1,2020-08-01T20:59:00Z,27.9920,-90.3255,14.5,29.3,11111222
ADCP,ioos:station:wmo:42384:1,2020-08-01T21:09:00Z,27.9920,-90.3255,14.5,29.2,11111222
ADCP,ioos:station:wmo:42384:1,2020-08-01T21:19:00Z,27.9920,-90.3255,14.3,29.2,11111222
ADCP,ioos:station:wmo:42384:1,2020-08-01T21:29:00Z,27.9920,-90.3255,14.4,29.3,11111222
ADCP,ioos:station:wmo:42384:1,2020-08-01T21:39:00Z,27.9920,-90.3255,14.2,29.3,11111222
ADCP,ioos:station:wmo:42384:1,2020-08-01T21:49:00Z,27.9920,-90.3255,14.4,29.3,11111222
ADCP,ioos:station:wmo:42384:1,2020-08-01T21:59:00Z,27.9920,-90.3255,14.3,29.2,11111222
ADCP,ioos:station:wmo:42384:1,2020-08-01T22:09:00Z,27.9920,-90.3255,14.3,29.2,11111222
ADCP,ioos:station:wmo:42384:1,2020-08-01T22:19:00Z,27.9920,-90.3255,14.3,29.2,11111222
ADCP,ioos:station:wmo:42384:1,2020-08-01T22:29:00Z,27.9920,-90.3255,14.4,29.2,11111222
ADCP,ioos:station:wmo:42384:1,2020-08-01T22:39:00Z,27.9920,-90.3255,14.2,29.2,11111222
ADCP,ioos:station:wmo:42384:1,2020-08-01T22:49:00Z,27.9920,-90.3255,14.2,29.2,11111222
ADCP,ioos:station:wmo:42384:1,2020-08-01T22:59:00Z,27.9920,-90.3255,14.2,29.1,11111222
ADCP,ioos:station:wmo:42384:1,2020-08-01T23:09:00Z,27.9920,-90.3255,14.2,29.1,11111222
ADCP,ioos:station:wmo:42384:1,2020-08-01T23:19:00Z,27.9920,-90.3255,14.4,29.1,11111222
ADCP,ioos:station:wmo:42384:1,2020-08-01T23:29:00Z,27.9920,-90.3255,14.3,29.1,11111222
ADCP,ioos:station:wmo:42384:1,2020-08-01T23:39:00Z,27.9920,-90.3255,14.2,29.1,11111222
ADCP,ioos:station:wmo:42384:1,2020-08-01T23:49:00Z,27.9920,-90.3255,14.4,29.0,11111222
ADCP,ioos:station:wmo:42384:1,2020-08-01T23:59:00Z,27.9920,-90.3255,14.3,29.0,11111222
ADCP,ioos:station:wmo:42384:1,2020-08-02T00:09:00Z,27.9920,-90.3255,14.2,29.0,11111222
ADCP,ioos:station:wmo:42384:1,2020-08-02T00:19:00Z,27.9920,-90.3255,14.1,29.1,11111222
ADCP,ioos:station:wmo:42384:1,2020-08-02T00:30:00Z,27.9920,-90.3255,14.2,29.1,11111222
ADCP,ioos:station:wmo:42384:1,2020-08-02T00:40:00Z,27.9920,-90.3255,14.2,29.1,11111222
ADCP,ioos:station:wmo:42384:1,2020-08-02T00:50:00Z,27.9920,-90.3255,14.3,29.1,11111222
ADCP,ioos:station:wmo:42384:1,2020-08-02T01:00:00Z,27.9920,-90.3255,14.3,29.0,11111222
ADCP,ioos:station:wmo:42384:1,2020-08-02T01:10:00Z,27.9920,-90.3255,14.3,29.1,11111222
ADCP,ioos:station:wmo:42384:1,2020-08-02T01:20:00Z,27.9920,-90.3255,14.3,29.1,11111222
ADCP,ioos:station:wmo:42384:1,2020-08-02T01:30:00Z,27.9920,-90.3255,14.3,29.0,11111222
ADCP,ioos:station:wmo:42384:1,2020-08-02T01:40:00Z,27.9920,-90.3255,14.2,29.0,11111222
ADCP,ioos:station:wmo:42384:1,2020-08-02T01:50:00Z,27.9920,-90.3255,14.4,29.0,11111222
ADCP,ioos:station:wmo:42384:1,2020-08-02T02:00:00Z,27.9920,-90.3255,14.2,29.0,11111222
ADCP,ioos:station:wmo:42384:1,2020-08-02T02:10:00Z,27.9920,-90.3255,14.3,29.0,11111222
ADCP,ioos:station:wmo:42384:1,2020-08-02T02:20:00Z,27.9920,-90.3255,14.3,29.0,11111222
ADCP,ioos:station:wmo:42384:1,2020-08-02T02:30:00Z,27.9920,-90.3255,14.3,29.1,11111222
ADCP,ioos:station:wmo:42384:1,2020-08-02T02:40:00Z,27.9920,-90.3255,14.4,29.1,11111222
ADCP,ioos:station:wmo:42384:1,2020-08-02T02:50:00Z,27.9920,-90.3255,14.4,29.1,11111222
ADCP,ioos:station:wmo:42384:1,2020-08-02T03:00:00Z,27.9920,-90.3255,14.4,29.1,11111222
ADCP,ioos:station:wmo:42384:1,2020-08-02T03:10:00Z,27.9920,-90.3255,14.4,29.2,11111222
ADCP,ioos:station:wmo:42384:1,2020-08-02T03:20:00Z,27.9920,-90.3255,14.5,29.2,11111222
ADCP,ioos:station:wmo:42384:1,2020-08-02T03:30:00Z,27.9920,-90.3255,14.5,29.2,11111222
ADCP,ioos:station:wmo:42384:1,2020-08-02T03:40:00Z,27.9920,-90.3255,14.5,29.2,11111222
ADCP,ioos:station:wmo:42384:1,2020-08-02T03:50:00Z,27.9920,-90.3255,14.4,29.2,11111222
ADCP,ioos:station:wmo:42384:1,2020-08-02T04:00:00Z,27.9920,-90.3255,14.4,29.2,11111222
ADCP,ioos:station:wmo:42384:1,2020-08-02T04:10:00Z,27.9920,-90.3255,14.4,29.2,11111222
ADCP,ioos:station:wmo:42384:1,2020-08-02T04:20:00Z,27.9920,-90.3255,14.5,29.2,11111222
ADCP,ioos:station:wmo:42384:1,2020-08-02T04:30:00Z,27.9920,-90.3255,14.3,29.2,11111222
ADCP,ioos:station:wmo:42384:1,2020-08-02T04:40:00Z,27.9920,-90.3255,14.5,29.1,11111222
ADCP,ioos:station:wmo:42384:1,2020-08-02T04:50:00Z,27.9920,-90.3255,14.5,29.2,11111222
ADCP,ioos:station:wmo:42384:1,2020-08-02T05:00:00Z,27.9920,-90.3255,14.4,29.1,11111222
ADCP,ioos:station:wmo:42384:1,2020-08-02T05:10:00Z,27.9920,-90.3255,14.6,29.0,11111222
ADCP,ioos:station:wmo:42384:1,2020-08-02T05:20:00Z,27.9920,-90.3255,14.5,29.0,11111222
ADCP,ioos:station:wmo:42384:1,2020-08-02T05:30:00Z,27.9920,-90.3255,14.5,28.9,11111222
ADCP,ioos:station:wmo:42384:1,2020-08-02T05:40:00Z,27.9920,-90.3255,14.6,29.0,11111222
ADCP,ioos:station:wmo:42384:1,2020-08-02T05:50:00Z,27.9920,-90.3255,14.6,29.0,11111222
ADCP,ioos:station:wmo:42384:1,2020-08-02T06:00:00Z,27.9920,-90.3255,14.6,29.0,11111222
ADCP,ioos:station:wmo:42384:1,2020-08-02T06:10:00Z,27.9920,-90.3255,14.6,29.1,11111222
ADCP,ioos:station:wmo:42384:1,2020-08-02T06:20:00Z,27.9920,-90.3255,14.7,29.1,11111222
ADCP,ioos:station:wmo:42384:1,2020-08-02T06:30:00Z,27.9920,-90.3255,14.6,29.1,11111222
ADCP,ioos:station:wmo:42384:1,2020-08-02T06:40:00Z,27.9920,-90.3255,14.6,29.1,11111222
ADCP,ioos:station:wmo:42384:1,2020-08-02T06:50:00Z,27.9920,-90.3255,14.7,29.1,11111222
ADCP,ioos:station:wmo:42384:1,2020-08-02T07:00:00Z,27.9920,-90.3255,14.6,29.0,11111222
ADCP,ioos:station:wmo:42384:1,2020-08-02T07:10:00Z,27.9920,-90.3255,14.7,29.0,11111222
ADCP,ioos:station:wmo:42384:1,2020-08-02T07:20:00Z,27.9920,-90.3255,14.6,29.1,11111222
ADCP,ioos:station:wmo:42384:1,2020-08-02T07:30:00Z,27.9920,-90.3255,14.7,29.1,11111222
ADCP,ioos:station:wmo:42384:1,2020-08-02T07:40:00Z,27.9920,-90.3255,14.6,29.1,11111222
ADCP,ioos:station:wmo:42384:1,2020-08-02T07:50:00Z,27.9920,-90.3255,14.8,29.1,11111222
ADCP,ioos:station:wmo:42384:1,2020-08-02T08:00:00Z,27.9920,-90.3255,14.7,29.1,11111222
ADCP,ioos:station:wmo:42384:1,2020-08-02T08:10:00Z,27.9920,-90.3255,14.8,29.1,11111222
ADCP,ioos:station:wmo:42384:1,2020-08-02T08:20:00Z,27.9920,-90.3255,14.6,29.1,11111222
ADCP,ioos:station:wmo:42384:1,2020-08-02T08:30:00Z,27.9920,-90.3255,14.7,29.1,11111222
ADCP,ioos:station:wmo:42384:1,2020-08-02T08:40:00Z,27.9920,-90.3255,14.8,29.1,11111222
ADCP,ioos:station:wmo:42384:1,2020-08-02T08:50:00Z,27.9920,-90.3255,14.7,29.1,11111222
ADCP,ioos:station:wmo:42384:1,2020-08-02T09:00:00Z,27.9920,-90.3255,14.7,29.1,11111222
ADCP,ioos:station:wmo:42384:1,2020-08-02T09:10:00Z,27.9920,-90.3255,14.8,29.0,11111222
ADCP,ioos:station:wmo:42384:1,2020-08-02T09:20:00Z,27.9920,-90.3255,14.7,29.1,11111222
ADCP,ioos:station:wmo:42384:1,2020-08-02T09:30:00Z,27.9920,-90.3255,14.9,29.1,11111222
ADCP,ioos:station:wmo:42384:1,2020-08-02T09:40:00Z,27.9920,-90.3255,14.9,29.0,11111222
ADCP,ioos:station:wmo:42384:1,2020-08-02T09:50:00Z,27.9920,-90.3255,14.8,29.1,11111222
ADCP,ioos:station:wmo:42384:1,2020-08-02T10:00:00Z,27.9920,-90.3255,14.8,29.1,11111222
ADCP,ioos:station:wmo:42384:1,2020-08-02T10:10:00Z,27.9920,-90.3255,14.8,29.1,11111222
ADCP,ioos:station:wmo:42384:1,2020-08-02T10:20:00Z,27.9920,-90.3255,14.8,29.1,11111222
ADCP,ioos:station:wmo:42384:1,2020-08-02T10:30:00Z,27.9920,-90.3255,14.9,29.1,11111222
ADCP,ioos:station:wmo:42384:1,2020-08-02T10:40:00Z,27.9920,-90.3255,14.9,29.1,11111222
ADCP,ioos:station:wmo:42384:1,2020-08-02T10:50:00Z,27.9920,-90.3255,14.9,29.1,11111222
ADCP,ioos:station:wmo:42384:1,2020-08-02T11:00:00Z,27.9920,-90.3255,14.9,29.1,11111222
ADCP,ioos:station:wmo:42384:1,2020-08-02T11:10:00Z,27.9920,-90.3255,14.8,29.1,11111222
ADCP,ioos:station:wmo:42384:1,2020-08-02T11:20:00Z,27.9920,-90.3255,15.0,29.2,11111222
ADCP,ioos:station:wmo:42384:1,2020-08-02T11:30:00Z,27.9920,-90.3255,15.0,29.1,11111222
ADCP,ioos:station:wmo:42384:1,2020-08-02T11:40:00Z,27.9920,-90.3255,14.8,29.1,11111222
ADCP,ioos:station:wmo:42384:1,2020-08-02T11:50:00Z,27.9920,-90.3255,14.8,29.1,11111222
ADCP,ioos:station:wmo:42384:1,2020-08-02T12:00:00Z,27.9920,-90.3255,14.9,29.1,11111222
ADCP,ioos:station:wmo:42384:1,2020-08-02T12:10:00Z,27.9920,-90.3255,14.9,29.2,11111222
ADCP,ioos:station:wmo:42384:1,2020-08-02T12:20:00Z,27.9920,-90.3255,15.0,29.2,11111222
ADCP,ioos:station:wmo:42384:1,2020-08-02T12:30:00Z,27.9920,-90.3255,14.9,29.2,11111222
ADCP,ioos:station:wmo:42384:1,2020-08-02T12:40:00Z,27.9920,-90.3255,14.8,29.2,11111222
ADCP,ioos:station:wmo:42384:1,2020-08-02T12:50:00Z,27.9920,-90.3255,14.9,29.2,11111222
ADCP,ioos:station:wmo:42384:1,2020-08-02T13:00:00Z,27.9920,-90.3255,14.9,29.2,11111222
ADCP,ioos:station:wmo:42384:1,2020-08-02T13:10:00Z,27.9920,-90.3255,14.9,29.2,11111222
ADCP,ioos:station:wmo:42384:1,2020-08-02T13:20:00Z,27.9920,-90.3255,14.9,29.2,11111222
ADCP,ioos:station:wmo:42384:1,2020-08-02T13:30:00Z,27.9920,-90.3255,14.9,29.2,11111222
ADCP,ioos:station:wmo:42384:1,2020-08-02T13:40:00Z,27.9920,-90.3255,14.9,29.1,11111222
ADCP,ioos:station:wmo:42384:1,2020-08-02T13:50:00Z,27.9920,-90.3255,15.0,29.1,11111222
ADCP,ioos:station:wmo:42384:1,2020-08-02T14:00:00Z,27.9920,-90.3255,14.9,29.1,11111222
ADCP,ioos:station:wmo:42384:1,2020-08-02T14:10:00Z,27.9920,-90.3255,15.1,29.1,11111222
ADCP,ioos:station:wmo:42384:1,2020-08-02T14:20:00Z,27.9920,-90.3255,14.9,29.1,11111222
ADCP,ioos:station:wmo:42384:1,2020-08-02T14:30:00Z,27.9920,-90.3255,15.0,29.0,11111222
ADCP,ioos:station:wmo:42384:1,2020-08-02T14:40:00Z,27.9920,-90.3255,14.8,29.0,11111222
ADCP,ioos:station:wmo:42384:1,2020-08-02T14:50:00Z,27.9920,-90.3255,14.9,29.0,11111222
ADCP,ioos:station:wmo:42384:1,2020-08-02T15:00:00Z,27.9920,-90.3255,14.9,29.1,11111222
ADCP,ioos:station:wmo:42384:1,2020-08-02T15:10:00Z,27.9920,-90.3255,15.0,29.2,11111222
ADCP,ioos:station:wmo:42384:1,2020-08-02T15:20:00Z,27.9920,-90.3255,14.9,29.2,11111222
ADCP,ioos:station:wmo:42384:1,2020-08-02T15:30:00Z,27.9920,-90.3255,15.0,29.3,11111222
ADCP,ioos:station:wmo:42384:1,2020-08-02T15:40:00Z,27.9920,-90.3255,14.9,29.3,11111222
ADCP,ioos:station:wmo:42384:1,2020-08-02T15:50:00Z,27.9920,-90.3255,14.8,29.3,11111222
ADCP,ioos:station:wmo:42384:1,2020-08-02T16:00:00Z,27.9920,-90.3255,14.9,29.3,11111222
ADCP,ioos:station:wmo:42384:1,2020-08-02T16:10:00Z,27.9920,-90.3255,14.8,29.3,11111222
ADCP,ioos:station:wmo:42384:1,2020-08-02T16:20:00Z,27.9920,-90.3255,14.8,29.3,11111222
ADCP,ioos:station:wmo:42384:1,2020-08-02T16:30:00Z,27.9920,-90.3255,14.8,29.4,11111222
ADCP,ioos:station:wmo:42384:1,2020-08-02T16:40:00Z,27.9920,-90.3255,14.9,29.4,11111222
ADCP,ioos:station:wmo:42384:1,2020-08-02T16:50:00Z,27.9920,-90.3255,14.8,29.4,11111222
ADCP,ioos:station:wmo:42384:1,2020-08-02T17:00:00Z,27.9920,-90.3255,14.8,29.4,11111222
ADCP,ioos:station:wmo:42384:1,2020-08-02T17:10:00Z,27.9920,-90.3255,14.9,29.4,11111222
ADCP,ioos:station:wmo:42384:1,2020-08-02T17:20:00Z,27.9920,-90.3255,14.7,29.4,11111222
ADCP,ioos:station:wmo:42384:1,2020-08-02T17:30:00Z,27.9920,-90.3255,14.8,29.4,11111222
ADCP,ioos:station:wmo:42384:1,2020-08-02T17:40:00Z,27.9920,-90.3255,14.7,29.4,11111222
ADCP,ioos:station:wmo:42384:1,2020-08-02T17:50:00Z,27.9920,-90.3255,14.7,29.4,11111222
ADCP,ioos:station:wmo:42384:1,2020-08-02T18:01:00Z,27.9920,-90.3255,14.7,29.4,11111222
ADCP,ioos:station:wmo:42384:1,2020-08-02T18:11:00Z,27.9920,-90.3255,14.6,29.4,11111222
ADCP,ioos:station:wmo:42384:1,2020-08-02T18:21:00Z,27.9920,-90.3255,14.7,29.4,11111222
ADCP,ioos:station:wmo:42384:1,2020-08-02T18:31:00Z,27.9920,-90.3255,14.6,29.4,11111222
ADCP,ioos:station:wmo:42384:1,2020-08-02T18:41:00Z,27.9920,-90.3255,14.6,29.4,11111222
ADCP,ioos:station:wmo:42384:1,2020-08-02T18:51:00Z,27.9920,-90.3255,14.6,29.4,11111222
ADCP,ioos:station:wmo:42384:1,2020-08-02T19:01:00Z,27.9920,-90.3255,14.6,29.4,11111222
ADCP,ioos:station:wmo:42384:1,2020-08-02T19:11:00Z,27.9920,-90.3255,14.5,29.4,11111222
ADCP,ioos:station:wmo:42384:1,2020-08-02T19:21:00Z,27.9920,-90.3255,14.5,29.4,11111222
ADCP,ioos:station:wmo:42384:1,2020-08-02T19:31:00Z,27.9920,-90.3255,14.8,29.4,11111222
ADCP,ioos:station:wmo:42384:1,2020-08-02T19:41:00Z,27.9920,-90.3255,14.4,29.4,11111222
ADCP,ioos:station:wmo:42384:1,2020-08-02T19:51:00Z,27.9920,-90.3255,14.6,29.4,11111222
ADCP,ioos:station:wmo:42384:1,2020-08-02T20:01:00Z,27.9920,-90.3255,14.6,29.4,11111222
ADCP,ioos:station:wmo:42384:1,2020-08-02T20:11:00Z,27.9920,-90.3255,14.4,29.4,11111222
ADCP,ioos:station:wmo:42384:1,2020-08-02T20:21:00Z,27.9920,-90.3255,14.4,29.4,11111222
ADCP,ioos:station:wmo:42384:1,2020-08-02T20:31:00Z,27.9920,-90.3255,14.4,29.4,11111222
ADCP,ioos:station:wmo:42384:1,2020-08-02T20:41:00Z,27.9920,-90.3255,14.4,29.4,11111222
ADCP,ioos:station:wmo:42384:1,2020-08-02T20:51:00Z,27.9920,-90.3255,14.4,29.4,11111222
ADCP,ioos:station:wmo:42384:1,2020-08-02T21:01:00Z,27.9920,-90.3255,14.5,29.4,11111222
ADCP,ioos:station:wmo:42384:1,2020-08-02T21:11:00Z,27.9920,-90.3255,14.5,29.4,11111222
ADCP,ioos:station:wmo:42384:1,2020-08-02T21:21:00Z,27.9920,-90.3255,14.4,29.4,11111222